Location: Aufkirchen
(47.9603°N, 11.3653°E)
Time: 13:56:04
(UTC+01:00)

Transit 2A Rocket - Pass Details

Date: 13 December 2020
Orbit: 592 x 910 km, 66.7° (Epoch: 21 January)

Event Time Altitude Azimuth Distance (km) Brightness Sun altitude
Rises 06:37:39 0° 327° (NNW) 3,128 - -12.4°
Exits shadow 06:39:56 - 332° (NNW) 2,237 7.0 -12.1°
Reaches altitude 10° 06:40:10 10° 333° (NNW) 2,152 6.9 -12.0°
Maximum altitude 06:44:52 50° 49° (NE) 835 5.4 -11.3°
Drops below altitude 10° 06:49:12 10° 125° (SE) 1,984 8.6 -10.6°
Sets 06:51:26 0° 131° (SE) 2,858 9.6 -10.3°
